Location: Bennemühlen
(52.5740°N, 9.7135°E)
Time: 08:05:58
(UTC+00:00)

Vanguard 2 Rocket - Pass Details

Date: 18 February 2026
Orbit: 553 x 3286 km, 32.9° (Epoch: 11 March)

Event Time Altitude Azimuth Distance (km) Brightness Sun altitude
Rises 13:36:24 0° 245° (WSW) 7,087 12.4 20.8°
Reaches altitude 10° 13:42:15 10° 237° (WSW) 5,808 12.4 20.4°
Maximum altitude 13:55:39 31° 185° (S) 3,417 11.0 19.2°
Drops below altitude 10° 14:04:43 10° 129° (SE) 3,895 10.2 18.3°
Sets 14:07:45 0° 118° (ESE) 4,530 10.4 18.1°
